CZ-3C DEB, 40867

Orbit data source: Space-Track

CZ-3C DEB, 40867 is space debris in HEO originally from a launch on Fri, 24 Feb 2012 UTC launched from the Xichang Space Center, China (XSC). Debris objects in space refer to the collection of defunct objects orbiting the Earth. Examples of debris include non-operational satellites, rocket bodies, and fragments generated from explosions, collisions, or faulty payload assembly.

Loading next visibility...
Identifier
40867, 2012-008AH
Orbit
HEO
Last TLE update
8 months ago
Origin
Manufacturer
CALT
Mission
Spacecraft
Bus & Motor
Unknown
Mass
Unknown
Launch date (UTC)
2012-02-24 (13 years ago)
Launch vehicle
Unknown
Launch site
Xichang Space Center, China (XSC)
Object type
Payload
Rocket body
Debris
Shape & HBR
Unknown
Radar Cross Section
Medium (>0.1 m² and <1 m²)

Expand to show TLE details & history

TLE from 8 months ago
0 CZ-3C DEB
1 40867U 12008AH  24298.01940812  .00000293  00000-0  37047-2 0  9993
2 40867  21.4063 188.7513 7183143 222.3329  51.5447  2.25785042 94415
Epoch: 2024-10-24T00:27Z
TLE epoch observation values (Epoch: 2024-10-24T00:27:56.861Z)
Latitude
0.0002°
Longitude
148.95742°
Altitude
19,000.136 km
Speed
3.895 km/s
True Right ascension
12h 35m 24s
True Declination
0° 00' 01"
Sunlit
Object was in daylight at epoch
Visualization orbit readout
Latitude
-13.84023°
Longitude
-81.68359°
Altitude
30,652.039 km
Speed
2.297 km/s
Apparent Right ascension
21h 14m 31s
Apparent Declination
-22° 34' 55"
Sunlit
Object is in daylight
Visualization observer readout
Local Sidereal Time
21:02:10
Azimuth
176.785° S
Elevation
27.435°
Doppler factor
1
Orbital elements
Apogee altitude
35,802.848 km
Perigee altitude
536.652 km
Semi-major axis
24,547.887 km
Eccentricity
0.71831
Inclination
21.4063°
RAAN
188.7513°
Arg. of periapsis
222.3329°
True anomaly
Unknown
Mean anomaly
51.5447°
Eccentric anomaly
Unknown
Mean motion
0.56432 °/min
Orbital period
637.94 mins
BSTAR
0.0037047
Loading maneuver chart data...
Loading SW <> Apogee altitude chart data...
Loading historical data...
Loading historical data...
Loading historical data...
Loading historical data...
Loading historical data...
Loading historical data...
Loading historical data...

CZ-3C DEB Visibility forecast

Observer location: undefined°, undefined°

Span
Click to sort rows by Start time (UTC) header in descending order
Start Az.
Max El. time (UTC)
Max El. Az.
Max El.
End time (UTC)
End Az.
126 mins2025-07-01 09:23:53.617Z176.786° S2025-07-01 09:23:53.617Z176.786° S24.727°2025-07-01 11:29:53.617Z169.928° S
24 mins2025-07-01 23:15:53.617Z181.285° SSW2025-07-01 23:19:53.617Z143.985° SSE20.973°2025-07-01 23:39:53.617Z100.464° ESE
171 mins2025-07-02 04:43:53.617Z120.161° SE2025-07-02 06:21:53.617Z131.983° SE12.799°2025-07-02 07:34:53.617Z137.695° SSE
|